[[[{"header":{"parameterUnit":"kt","parameterCategory":2,"dx":1,"dy":1,"la1":30.253999710083008,"la2":30.299108505249023,"lo1":-89.0895004272461,"lo2":-89.04439544677734,"nx":28,"ny":28,"refTime":"2022-10-25T21:00:00:Z","depth":0,"parameterNumber":1,"parameterNumberName":"U-component_of_WINDS"},"data":[3.0111,3.015,3.0119,3.0149,3.0126,3.0142,3.0137,3.0129,3.0113,3.0129,3.0132,3.0104,3.0076,3.0073,3.0075,3.0063,3.0069,3.0106,3.0086,2.9943,2.9922,2.9901,2.9892,3.0106,3.0107,3.024,3.0241,3.0242,3.0015,2.9993,2.9998,2.9983,2.9988,2.9933,2.9916,2.9925,2.994,2.992,2.9921,2.9931,2.9935,2.9893,2.9892,2.9911,2.9886,2.9914,2.9914,2.9912,2.9757,2.9747,2.9934,2.9934,2.9934,2.9934,2.9934,2.9934,2.9833,2.9856,2.9828,2.9833,2.9816,2.9806,2.9823,2.9787,2.9792,2.9786,2.9745,2.9762,2.9736,2.9717,2.9702,2.9715,2.9679,2.9699,2.9705,2.9713,2.9728,2.9549,2.9712,2.9711,2.9711,2.971,2.971,0,2.969,2.9663,2.9664,2.9658,2.9659,2.9651,2.9637,2.9646,2.9574,2.958,2.9588,2.9587,2.9584,2.9589,2.9579,2.9558,2.9504,2.9492,2.9507,2.9532,2.9555,2.9549,2.9304,2.9489,2.9487,2.9485,2.9484,2.9484,2.9509,2.9538,2.9491,2.9497,2.9481,2.949,2.949,2.9423,2.9425,2.9398,2.9422,2.9424,2.9422,2.9439,2.9396,2.9394,2.9368,2.9444,2.9368,2.9389,2.9376,2.9378,2.9383,2.9462,2.9465,2.9467,2.9469,0,2.9411,2.9356,2.939,2.9339,2.9328,2.9362,2.9319,2.9339,2.93,2.9322,2.9323,2.9264,2.9272,2.9216,2.9212,2.9183,2.9244,2.9215,2.9254,2.9248,2.9314,2.9311,2.9526,2.9553,2.9323,2.9325,2.9327,0,2.9237,2.9276,2.9194,2.9216,2.9259,2.919,2.9234,2.9205,2.9179,2.9196,2.9122,2.9139,2.9064,2.9073,2.903,2.9068,2.9066,2.9048,2.9037,2.9058,2.9061,2.9062,2.9054,2.9003,2.9002,2.9001,2.9001,0,2.9093,2.9092,2.9127,2.9119,2.9068,2.9086,2.9066,2.9035,2.9035,2.9024,2.9023,2.9015,2.9013,2.9008,2.8954,2.8905,2.8997,2.8919,2.898,2.8982,2.9007,2.9007,2.9207,2.8999,2.8999,2.8999,2.8998,0,2.8945,2.8935,2.8992,2.8949,2.8952,2.8973,2.8962,2.8967,2.8941,2.8914,2.8905,2.885,2.8874,2.8802,2.8836,2.8789,2.8791,2.8774,2.8777,2.8781,2.8703,2.883,2.9022,2.9043,2.8779,2.8777,2.8775,0,2.8799,2.884,2.8781,2.8836,2.8848,2.8766,2.8789,2.8767,2.8733,2.8739,2.8701,2.8708,2.8641,2.8636,2.8659,2.8623,2.8683,2.8612,2.8627,2.8628,2.8643,2.8817,2.8863,2.8985,2.8751,2.8753,2.8755,0,2.8678,2.8614,2.8628,2.8616,2.8573,2.8581,2.8607,2.8598,2.8606,2.8585,2.8608,2.8612,2.8564,2.8555,2.8508,2.8536,2.864,2.848,2.8478,2.8516,2.8731,2.8776,2.8796,2.8603,2.8606,2.8608,2.8736,0,2.8478,2.8489,2.8522,2.8495,2.8491,2.852,2.8459,2.8464,2.842,2.8384,2.8412,2.8376,2.8367,2.8372,2.8329,2.8409,2.8388,2.8335,2.8264,2.8376,2.8417,2.8433,2.8208,2.8205,2.8203,2.8201,0,0,2.8354,2.8369,2.8301,2.8323,2.8317,2.823,2.8267,2.825,2.8218,2.8217,2.8175,2.8178,2.8151,2.8193,2.8222,2.8216,2.8227,2.8189,2.8322,2.8335,2.8348,2.8393,2.841,2.8198,2.8197,2.8196,2.8195,0,2.8269,2.824,2.8277,2.8256,2.8223,2.8182,2.8191,2.8143,2.8121,2.8146,2.8076,2.8084,2.8086,2.8069,2.8061,2.8181,2.8129,2.8181,2.827,2.8302,2.8319,2.8333,2.8381,2.8399,2.819,2.8191,2.8191,0,2.8143,2.8107,2.8117,2.8095,2.8072,2.8084,2.7994,2.8009,2.8018,2.7922,2.7949,2.7921,2.7891,2.7935,2.7953,2.7916,2.8045,2.799,2.8002,2.8004,2.8033,2.8053,2.807,2.7839,2.7838,2.7837,0,0,2.8078,2.8087,2.8027,2.8072,2.8062,2.8001,2.8,2.7956,2.793,2.792,2.7883,2.7861,2.7861,2.7863,2.786,2.7917,2.7908,2.795,2.7966,2.798,2.799,2.8022,2.8042,2.7833,2.7833,2.7833,0,0,2.8047,2.798,2.7939,2.7983,2.7961,2.7905,2.7935,2.7885,2.7875,2.7865,2.7791,2.7782,2.7822,2.7797,2.7756,2.7835,2.7764,2.7773,2.785,2.787,2.7887,2.7894,2.7659,0,0,0,0,0,2.7929,2.7988,2.7952,2.795,2.792,2.7924,2.792,2.7861,2.7813,2.7839,2.78,2.7742,2.776,2.7722,2.7721,2.7769,2.7787,2.7795,2.7803,2.7915,2.7937,2.7955,0,0,0,0,0,0,2.7927,2.7925,2.795,2.7898,2.789,2.7922,2.7829,2.7814,2.7809,2.7798,2.7751,2.7741,2.769,2.7718,2.7718,2.7765,2.7659,2.779,2.7797,2.7803,2.7923,2.7941,2.7956,0,0,0,0,0,2.7926,2.7924,2.7892,2.7896,2.789,2.7825,2.7826,2.7813,2.7808,2.7747,2.7735,2.7763,2.7693,2.7689,2.7718,2.7767,2.7658,2.7659,2.7794,2.78,2.7805,2.7932,0,0,0,0,0,0,2.7925,2.7912,2.7889,2.7885,2.7869,2.7822,2.7812,2.7812,2.7757,2.7745,2.7756,2.7747,2.7696,2.7692,2.769,2.7771,2.7658,2.7658,2.7658,2.7799,2.7803,2.7807,0,0,0,0,0,0,2.7913,2.7909,2.7887,2.7856,2.7848,2.782,2.7811,2.7826,2.7757,2.7768,2.7759,2.7753,2.7699,2.7695,2.7692,2.7718,2.7657,2.7658,2.7658,2.7658,2.7802,2.7806,0,0,0,0,0,0,2.791,2.7907,2.7857,2.7851,2.7843,2.7793,2.7832,2.7805,2.7731,2.7771,2.7722,2.7718,2.7704,2.77,2.7695,2.7722,2.7719,2.7657,2.7657,2.7658,2.7658,0,0,0,0,0,0,0,2.7908,2.7942,2.7914,2.7846,2.7839,2.7847,2.7846,2.7845,2.773,2.7726,2.7723,2.772,2.7655,2.7655,2.7656,2.7725,0,0,2.7657,2.7657,0,0,0,0,0,0,0,0,2.7942,2.7942,2.7914,2.7913,2.7912,2.7847,2.7846,2.7845,2.7729,2.7726,2.7724,2.7721,2.7655,2.7656,2.7656,0,0,0,0,0,0,0,0,0,0,0,0,0,0,0,2.7914,2.7913,0,2.7847,2.7846,2.7846,2.7729,2.7727,2.7724,2.7722,2.7655,2.7656,2.7656,0,0,0,0,0,0,0,0,0,0,0,0,0,0,0,0,0,0,0,0,0,0,0,0,0,0,0,0,0,0,0,0,0,0,0,0,0,0,0,0,0,0,0,0,0,0,0,0,0,0,0,0,0,0,0,0,0,0,0,0,0,0,0,0,0,0,0,0,0]}],[{"header":{"parameterUnit":"kt","parameterCategory":2,"dx":1,"dy":1,"la1":30.253999710083008,"la2":30.299108505249023,"lo1":-89.0895004272461,"lo2":-89.04439544677734,"nx":28,"ny":28,"refTime":"2022-10-25T21:00:00:Z","depth":0,"parameterNumber":2,"parameterNumberName":"V-component_of_WINDS"},"data":[8.0579,8.0805,8.0925,8.1236,8.1396,8.163,8.1752,8.1921,8.2086,8.2377,8.2566,8.2707,8.2919,8.3172,8.3382,8.3441,8.3524,8.3515,8.3587,8.3515,8.3513,8.3512,8.347,8.3529,8.3529,8.3647,8.3648,8.3649,8.0513,8.0674,8.0874,8.1149,8.1322,8.1402,8.1626,8.1765,8.1972,8.2176,8.2368,8.2634,8.2858,8.3078,8.3315,8.3422,8.3475,8.3478,8.3476,8.3509,8.3435,8.3388,8.3432,8.3432,8.3432,8.3431,8.3431,8.3431,8.0427,8.0556,8.0795,8.1015,8.1185,8.1368,8.1513,8.1687,8.1884,8.2147,8.2251,8.2487,8.2714,8.3059,8.3204,8.3391,8.341,8.3452,8.3464,8.3474,8.3469,8.329,8.3435,8.3436,8.3436,8.3436,8.3437,0,8.0403,8.0496,8.0697,8.0933,8.11,8.1294,8.1494,8.1586,8.1823,8.1975,8.2206,8.2359,8.2661,8.2892,8.314,8.3286,8.3389,8.341,8.3441,8.3398,8.3327,8.3373,8.3252,8.3407,8.3407,8.3407,8.3407,8.3407,8.033,8.0466,8.0775,8.0899,8.104,8.1237,8.138,8.158,8.1722,8.1996,8.21,8.2333,8.2532,8.2879,8.3083,8.3309,8.3363,8.3409,8.3398,8.3348,8.3372,8.3364,8.3381,8.341,8.3409,8.3409,8.3409,0,8.0278,8.0478,8.0729,8.1023,8.11,8.1232,8.1484,8.1621,8.1776,8.1987,8.2047,8.2292,8.2515,8.2714,8.3007,8.3104,8.3324,8.3367,8.3248,8.327,8.3335,8.3329,8.3507,8.3543,8.3475,8.3476,8.3476,0,8.0298,8.0469,8.0758,8.0894,8.109,8.129,8.1478,8.1632,8.1835,8.2003,8.215,8.2304,8.2534,8.2717,8.286,8.3075,8.3129,8.3218,8.3256,8.321,8.3199,8.3294,8.3293,8.3327,8.3326,8.3325,8.3325,0,8.0201,8.0556,8.0776,8.089,8.1222,8.1319,8.1461,8.1691,8.1829,8.204,8.2132,8.2361,8.2488,8.2662,8.2846,8.2831,8.3111,8.3129,8.3204,8.3199,8.3262,8.3257,8.3358,8.3323,8.3323,8.3323,8.3322,0,8.0251,8.0462,8.075,8.1031,8.1117,8.126,8.1503,8.1672,8.1903,8.2005,8.2172,8.2297,8.2499,8.2503,8.2785,8.2715,8.283,8.2934,8.2943,8.298,8.2981,8.3019,8.309,8.3108,8.3003,8.3001,8.2998,0,8.0087,8.0432,8.061,8.0878,8.1066,8.1225,8.1388,8.1589,8.1739,8.1919,8.2083,8.2287,8.2332,8.2424,8.2536,8.2716,8.2806,8.2708,8.2969,8.2976,8.2909,8.2975,8.294,8.305,8.2967,8.297,8.2972,0,7.9988,8.0394,8.0429,8.057,8.0871,8.1029,8.1214,8.1463,8.1573,8.1782,8.1946,8.2233,8.2282,8.2432,8.2559,8.2665,8.275,8.2703,8.2712,8.2709,8.2966,8.2932,8.295,8.2812,8.2816,8.2819,8.2947,0,8.0026,8.0226,8.033,8.0633,8.0786,8.0965,8.1184,8.1315,8.1424,8.158,8.1821,8.204,8.2292,8.2363,8.247,8.2649,8.2653,8.2701,8.2727,8.2765,8.2813,8.2832,8.2637,8.2639,8.264,8.2642,0,0,7.9823,8.0115,8.0307,8.0498,8.064,8.0807,8.0979,8.1136,8.145,8.1544,8.1558,8.1998,8.2176,8.2446,8.2475,8.2574,8.2628,8.2607,8.2743,8.2754,8.2764,8.2811,8.2828,8.2645,8.2645,8.2646,8.2646,0,7.9886,8.0065,8.0234,8.0406,8.0669,8.0828,8.0867,8.1158,8.1266,8.1504,8.164,8.1809,8.2155,8.2328,8.246,8.2578,8.2673,8.2636,8.263,8.2752,8.276,8.2768,8.2815,8.2829,8.265,8.265,8.265,0,7.9831,8.0046,8.0151,8.0483,8.0658,8.0846,8.0925,8.1121,8.1263,8.1437,8.1672,8.1823,8.2071,8.2296,8.2406,8.2423,8.2701,8.2651,8.2646,8.2665,8.2795,8.2804,8.2812,8.2703,8.2702,8.2701,0,0,7.9855,8.0043,8.0338,8.0514,8.0614,8.0853,8.0975,8.11,8.1321,8.1408,8.1607,8.1816,8.202,8.215,8.2353,8.2568,8.2638,8.2648,8.2646,8.2643,8.2659,8.2788,8.2797,8.2699,8.2699,8.2699,0,0,7.9868,8.0219,8.0292,8.0523,8.0729,8.1033,8.1131,8.1227,8.1433,8.1438,8.1655,8.1721,8.1935,8.2079,8.2018,8.2366,8.2386,8.2405,8.2266,8.2266,8.2264,8.2228,8.2133,0,0,0,0,0,8.0047,8.0176,8.0238,8.031,8.0732,8.0997,8.1052,8.1237,8.1247,8.1321,8.1502,8.1595,8.2091,8.2042,8.211,8.2178,8.2665,8.2671,8.2677,8.255,8.2547,8.2545,0,0,0,0,0,0,8.0077,8.0165,8.0235,8.0541,8.0638,8.0994,8.1053,8.1107,8.1244,8.1259,8.1557,8.1605,8.1765,8.2021,8.2078,8.214,8.2114,8.2667,8.2672,8.2677,8.2549,8.2547,8.2545,0,0,0,0,0,8.0102,8.0173,8.0802,8.0541,8.0625,8.09,8.105,8.1096,8.1205,8.1487,8.1538,8.1332,8.1762,8.1824,8.2056,8.2109,8.2075,8.2096,8.267,8.2675,8.2678,8.2548,0,0,0,0,0,0,8.012,8.0216,8.0823,8.0855,8.0508,8.0884,8.0949,8.1084,8.1429,8.148,8.1272,8.1279,8.1761,8.1809,8.1856,8.2088,8.2043,8.2065,8.2078,8.2674,8.2677,8.268,0,0,0,0,0,0,8.0179,8.0242,8.084,8.0787,8.0816,8.0868,8.0926,8.115,8.1431,8.1195,8.1212,8.1271,8.1691,8.18,8.1836,8.2178,8.2019,8.2039,8.2054,8.2063,8.2676,8.2679,0,0,0,0,0,0,8.0209,8.0263,8.078,8.0802,8.0827,8.1204,8.1069,8.1491,8.1386,8.1177,8.1382,8.138,8.1679,8.172,8.1822,8.2148,8.217,8.202,8.2034,8.2044,8.205,0,0,0,0,0,0,0,8.0233,7.9828,8.0631,8.0814,8.0835,8.1155,8.1164,8.1173,8.1386,8.1384,8.1382,8.1381,8.1903,8.1926,8.1948,8.2123,0,0,8.2018,8.2028,0,0,0,0,0,0,0,0,7.9809,7.9823,8.0632,8.0638,8.0645,8.1156,8.1163,8.1171,8.1385,8.1384,8.1383,8.1381,8.1909,8.1927,8.1946,0,0,0,0,0,0,0,0,0,0,0,0,0,0,0,8.0632,8.0638,0,8.1157,8.1163,8.1169,8.1385,8.1384,8.1383,8.1382,8.1914,8.1929,8.1944,0,0,0,0,0,0,0,0,0,0,0,0,0,0,0,0,0,0,0,0,0,0,0,0,0,0,0,0,0,0,0,0,0,0,0,0,0,0,0,0,0,0,0,0,0,0,0,0,0,0,0,0,0,0,0,0,0,0,0,0,0,0,0,0,0,0,0,0,0]}]]]